Time,TemperatureF,DewpointF,PressureIn,WindDirection,WindDirectionDegrees,WindSpeedMPH,WindSpeedGustMPH,Humidity,HourlyPrecipIn,Conditions,Clouds,dailyrainin,SoftwareType,DateUTC
2013-03-20 00:00:00,67.9,61.1,29.97,NE,42,5.0,9.0,79,0.00,,,0.00,Wunderground v.1.15,2013-03-20 04:00:00,
2013-03-20 00:10:00,67.8,61.4,29.97,NE,49,4.0,9.0,80,0.00,,,0.00,Wunderground v.1.15,2013-03-20 04:10:00,
2013-03-20 00:20:00,67.6,61.6,29.98,NNE,33,4.0,10.0,81,0.00,,,0.00,Wunderground v.1.15,2013-03-20 04:20:00,
2013-03-20 00:30:00,67.5,61.8,29.97,East,80,5.0,5.0,82,0.00,,,0.00,Wunderground v.1.15,2013-03-20 04:30:00,
2013-03-20 00:40:00,67.3,62.0,29.98,ENE,65,3.0,3.0,83,0.00,,,0.00,Wunderground v.1.15,2013-03-20 04:40:00,
2013-03-20 00:50:00,67.2,61.9,29.97,NE,45,2.0,9.0,83,0.00,,,0.00,Wunderground v.1.15,2013-03-20 04:50:00,
2013-03-20 01:00:00,67.2,61.9,29.98,NE,45,2.0,9.0,83,0.00,,,0.00,Wunderground v.1.15,2013-03-20 05:00:00,
2013-03-20 01:10:00,67.1,62.4,30.00,West,267,5.0,9.0,85,0.00,,,0.01,Wunderground v.1.15,2013-03-20 05:10:00,
2013-03-20 01:20:00,66.3,62.0,29.98,NE,56,4.0,4.0,86,0.46,,,0.08,Wunderground v.1.15,2013-03-20 05:20:00,
2013-03-20 01:30:00,65.7,62.0,29.98,ENE,77,3.0,3.0,88,0.33,,,0.14,Wunderground v.1.15,2013-03-20 05:30:00,
2013-03-20 01:40:00,65.0,61.4,29.96,ENE,64,4.0,9.0,88,0.07,,,0.15,Wunderground v.1.15,2013-03-20 05:40:00,
2013-03-20 01:50:00,65.0,61.7,29.97,ENE,67,2.0,9.0,89,0.00,,,0.15,Wunderground v.1.15,2013-03-20 05:50:00,
2013-03-20 02:00:00,65.0,62.0,29.96,ENE,71,1.0,1.0,90,0.00,,,0.15,Wunderground v.1.15,2013-03-20 06:00:00,
2013-03-20 02:10:00,64.9,61.9,29.96,ENE,65,2.0,2.0,90,0.00,,,0.15,Wunderground v.1.15,2013-03-20 06:10:00,
2013-03-20 02:20:00,64.9,62.2,29.96,ENE,65,0.0,9.0,91,0.00,,,0.15,Wunderground v.1.15,2013-03-20 06:20:00,
2013-03-20 02:30:00,64.7,62.0,29.96,ENE,65,0.0,9.0,91,0.00,,,0.15,Wunderground v.1.15,2013-03-20 06:30:00,
2013-03-20 02:40:00,64.6,61.9,29.95,ENE,65,1.0,1.0,91,0.00,,,0.15,Wunderground v.1.15,2013-03-20 06:40:00,
2013-03-20 02:50:00,64.2,61.5,29.95,NE,53,2.0,2.0,91,0.00,,,0.15,Wunderground v.1.15,2013-03-20 06:50:00,
2013-03-20 03:00:00,64.0,61.6,29.95,NE,53,1.0,1.0,92,0.00,,,0.15,Wunderground v.1.15,2013-03-20 07:00:00,
2013-03-20 03:10:00,64.0,61.6,29.95,NE,53,1.0,9.0,92,0.00,,,0.15,Wunderground v.1.15,2013-03-20 07:10:00,
2013-03-20 03:20:00,64.0,61.6,29.95,NE,53,1.0,1.0,92,0.00,,,0.15,Wunderground v.1.15,2013-03-20 07:20:00,
2013-03-20 03:30:00,64.0,61.6,29.94,NE,53,0.0,9.0,92,0.00,,,0.15,Wunderground v.1.15,2013-03-20 07:30:00,
2013-03-20 03:40:00,63.8,61.4,29.93,East,80,3.0,3.0,92,0.00,,,0.15,Wunderground v.1.15,2013-03-20 07:40:00,
2013-03-20 03:50:00,63.2,60.8,29.93,ESE,105,2.0,2.0,92,0.00,,,0.15,Wunderground v.1.15,2013-03-20 07:50:00,
2013-03-20 04:00:00,62.9,60.5,29.93,ESE,103,1.0,1.0,92,0.00,,,0.15,Wunderground v.1.15,2013-03-20 08:00:00,
2013-03-20 04:10:00,62.8,60.4,29.93,ENE,74,1.0,1.0,92,0.00,,,0.15,Wunderground v.1.15,2013-03-20 08:10:00,
2013-03-20 04:20:00,62.7,60.3,29.92,ENE,73,0.0,9.0,92,0.00,,,0.15,Wunderground v.1.15,2013-03-20 08:20:00,
2013-03-20 04:30:00,62.7,60.3,29.93,ENE,73,1.0,1.0,92,0.00,,,0.15,Wunderground v.1.15,2013-03-20 08:30:00,
2013-03-20 04:40:00,62.8,60.4,29.93,ENE,72,0.0,9.0,92,0.00,,,0.15,Wunderground v.1.15,2013-03-20 08:40:00,
2013-03-20 04:50:00,62.6,60.2,29.92,ENE,73,1.0,1.0,92,0.00,,,0.15,Wunderground v.1.15,2013-03-20 08:50:00,
2013-03-20 05:00:00,62.5,60.1,29.92,ENE,73,0.0,9.0,92,0.00,,,0.15,Wunderground v.1.15,2013-03-20 09:00:00,
2013-03-20 05:10:00,62.4,60.0,29.92,ENE,73,0.0,9.0,92,0.00,,,0.15,Wunderground v.1.15,2013-03-20 09:10:00,
2013-03-20 05:20:00,62.3,59.9,29.91,ENE,73,0.0,9.0,92,0.00,,,0.15,Wunderground v.1.15,2013-03-20 09:20:00,
2013-03-20 05:30:00,62.1,59.7,29.92,ENE,73,0.0,9.0,92,0.00,,,0.15,Wunderground v.1.15,2013-03-20 09:30:00,
2013-03-20 05:40:00,61.9,59.5,29.91,ENE,72,1.0,1.0,92,0.00,,,0.15,Wunderground v.1.15,2013-03-20 09:40:00,
2013-03-20 05:50:00,61.8,59.5,29.91,ENE,71,1.0,1.0,92,0.00,,,0.15,Wunderground v.1.15,2013-03-20 09:50:00,
2013-03-20 06:00:00,61.6,59.3,29.91,ENE,68,2.0,9.0,92,0.00,,,0.15,Wunderground v.1.15,2013-03-20 10:00:00,
2013-03-20 06:10:00,61.4,58.7,29.92,ENE,69,2.0,2.0,91,0.00,,,0.15,Wunderground v.1.15,2013-03-20 10:10:00,
2013-03-20 06:20:00,61.1,58.5,29.92,ENE,68,0.0,9.0,91,0.00,,,0.15,Wunderground v.1.15,2013-03-20 10:20:00,
2013-03-20 06:30:00,61.2,57.9,29.93,ENE,65,1.0,1.0,89,0.00,,,0.15,Wunderground v.1.15,2013-03-20 10:30:00,
2013-03-20 06:40:00,61.4,57.8,29.93,ENE,65,1.0,1.0,88,0.00,,,0.15,Wunderground v.1.15,2013-03-20 10:40:00,
2013-03-20 06:50:00,61.6,57.7,29.94,ENE,65,0.0,9.0,87,0.00,,,0.15,Wunderground v.1.15,2013-03-20 10:50:00,
2013-03-20 07:00:00,61.7,57.5,29.94,ENE,65,0.0,9.0,86,0.00,,,0.15,Wunderground v.1.15,2013-03-20 11:00:00,
2013-03-20 07:10:00,61.7,57.1,29.93,ENE,65,1.0,9.0,85,0.00,,,0.15,Wunderground v.1.15,2013-03-20 11:10:00,
2013-03-20 07:20:00,61.7,57.1,29.93,ENE,65,1.0,9.0,85,0.00,,,0.15,Wunderground v.1.15,2013-03-20 11:20:00,
2013-03-20 07:30:00,61.3,57.1,29.93,ENE,64,1.0,9.0,86,0.00,,,0.15,Wunderground v.1.15,2013-03-20 11:30:00,
2013-03-20 07:40:00,61.0,57.1,29.94,ENE,64,0.0,9.0,87,0.00,,,0.15,Wunderground v.1.15,2013-03-20 11:40:00,
2013-03-20 07:50:00,60.9,57.0,29.94,ENE,64,0.0,9.0,87,0.00,,,0.15,Wunderground v.1.15,2013-03-20 11:50:00,
2013-03-20 08:00:00,61.1,57.2,29.94,ENE,64,0.0,9.0,87,0.00,,,0.15,Wunderground v.1.15,2013-03-20 12:00:00,
2013-03-20 08:10:00,61.2,57.0,29.94,ENE,65,0.0,9.0,86,0.00,,,0.15,Wunderground v.1.15,2013-03-20 12:10:00,
2013-03-20 08:20:00,61.5,56.6,29.94,ENE,65,0.0,9.0,84,0.00,,,0.15,Wunderground v.1.15,2013-03-20 12:20:00,
2013-03-20 08:30:00,62.4,56.5,29.94,ENE,66,0.0,9.0,81,0.00,,,0.15,Wunderground v.1.15,2013-03-20 12:30:00,
2013-03-20 08:40:00,63.1,56.1,29.94,ENE,59,2.0,2.0,78,0.00,,,0.15,Wunderground v.1.15,2013-03-20 12:40:00,
2013-03-20 08:50:00,63.8,55.7,29.94,SE,125,1.0,1.0,75,0.00,,,0.15,Wunderground v.1.15,2013-03-20 12:50:00,
2013-03-20 09:00:00,64.3,56.2,29.95,ESE,121,1.0,1.0,75,0.00,,,0.15,Wunderground v.1.15,2013-03-20 13:00:00,
2013-03-20 09:10:00,64.6,56.5,29.96,ESE,121,1.0,1.0,75,0.00,,,0.16,Wunderground v.1.15,2013-03-20 13:10:00,
2013-03-20 09:20:00,64.3,58.0,29.96,ESE,121,0.0,9.0,80,0.09,,,0.17,Wunderground v.1.15,2013-03-20 13:20:00,
2013-03-20 09:30:00,63.5,57.9,29.95,ESE,121,0.0,9.0,82,0.07,,,0.18,Wunderground v.1.15,2013-03-20 13:30:00,
2013-03-20 09:40:00,63.5,58.9,29.94,ESE,121,0.0,9.0,85,0.04,,,0.18,Wunderground v.1.15,2013-03-20 13:40:00,
2013-03-20 09:50:00,63.6,59.0,29.95,ESE,121,0.0,9.0,85,0.00,,,0.18,Wunderground v.1.15,2013-03-20 13:50:00,
2013-03-20 10:00:00,64.2,59.3,29.94,ENE,73,1.0,9.0,84,0.00,,,0.18,Wunderground v.1.15,2013-03-20 14:00:00,
2013-03-20 10:10:00,64.6,59.7,29.95,NE,41,3.0,9.0,84,0.00,,,0.18,Wunderground v.1.15,2013-03-20 14:10:00,
2013-03-20 10:20:00,64.6,59.7,29.95,NE,53,2.0,9.0,84,0.00,,,0.18,Wunderground v.1.15,2013-03-20 14:20:00,
2013-03-20 10:30:00,64.7,60.1,29.95,NE,43,2.0,9.0,85,0.00,,,0.18,Wunderground v.1.15,2013-03-20 14:30:00,
2013-03-20 10:40:00,65.0,60.0,29.96,NNE,19,3.0,9.0,84,0.00,,,0.18,Wunderground v.1.15,2013-03-20 14:40:00,
2013-03-20 10:50:00,65.4,60.4,29.96,NE,35,3.0,9.0,84,0.00,,,0.18,Wunderground v.1.15,2013-03-20 14:50:00,
2013-03-20 11:00:00,65.8,60.5,29.95,NE,46,4.0,9.0,83,0.00,,,0.18,Wunderground v.1.15,2013-03-20 15:00:00,
2013-03-20 11:10:00,66.1,60.8,29.96,NE,53,4.0,9.0,83,0.00,,,0.18,Wunderground v.1.15,2013-03-20 15:10:00,
2013-03-20 11:20:00,66.5,61.2,29.96,ENE,75,3.0,9.0,83,0.00,,,0.18,Wunderground v.1.15,2013-03-20 15:20:00,
2013-03-20 11:30:00,66.9,61.6,29.96,NE,51,3.0,9.0,83,0.00,,,0.18,Wunderground v.1.15,2013-03-20 15:30:00,
2013-03-20 11:40:00,67.2,61.5,29.96,ENE,76,3.0,9.0,82,0.00,,,0.18,Wunderground v.1.15,2013-03-20 15:40:00,
2013-03-20 11:50:00,67.7,62.0,29.96,ENE,75,2.0,9.0,82,0.00,,,0.18,Wunderground v.1.15,2013-03-20 15:50:00,
2013-03-20 12:00:00,67.9,62.2,29.95,East,97,3.0,3.0,82,0.00,,,0.18,Wunderground v.1.15,2013-03-20 16:00:00,
2013-03-20 12:10:00,68.5,62.4,29.95,East,98,2.0,9.0,81,0.00,,,0.18,Wunderground v.1.15,2013-03-20 16:10:00,
2013-03-20 12:20:00,68.5,62.4,29.94,East,98,3.0,9.0,81,0.00,,,0.18,Wunderground v.1.15,2013-03-20 16:20:00,
2013-03-20 12:30:00,68.4,62.7,29.93,ESE,123,5.0,9.0,82,0.00,,,0.18,Wunderground v.1.15,2013-03-20 16:30:00,
2013-03-20 12:40:00,68.6,62.9,29.92,East,98,5.0,5.0,82,0.00,,,0.18,Wunderground v.1.15,2013-03-20 16:40:00,
2013-03-20 12:50:00,68.8,63.4,29.92,ENE,66,3.0,9.0,83,0.00,,,0.18,Wunderground v.1.15,2013-03-20 16:50:00,
2013-03-20 13:00:00,69.0,63.6,29.92,ESE,109,3.0,3.0,83,0.00,,,0.18,Wunderground v.1.15,2013-03-20 17:00:00,
2013-03-20 13:10:00,69.2,63.8,29.91,East,86,2.0,2.0,83,0.00,,,0.18,Wunderground v.1.15,2013-03-20 17:10:00,
2013-03-20 13:20:00,69.5,64.1,29.89,ENE,74,3.0,3.0,83,0.00,,,0.18,Wunderground v.1.15,2013-03-20 17:20:00,
2013-03-20 13:30:00,70.2,64.4,29.89,SE,137,4.0,9.0,82,0.00,,,0.18,Wunderground v.1.15,2013-03-20 17:30:00,
2013-03-20 13:40:00,70.3,64.5,29.89,ESE,119,4.0,4.0,82,0.00,,,0.18,Wunderground v.1.15,2013-03-20 17:40:00,
2013-03-20 13:50:00,70.4,64.6,29.89,SE,125,2.0,9.0,82,0.00,,,0.18,Wunderground v.1.15,2013-03-20 17:50:00,
2013-03-20 14:00:00,70.4,64.3,29.90,SW,215,2.0,9.0,81,0.00,,,0.18,Wunderground v.1.15,2013-03-20 18:00:00,
2013-03-20 14:10:00,70.5,64.7,29.88,WSW,250,2.0,9.0,82,0.00,,,0.18,Wunderground v.1.15,2013-03-20 18:10:00,
2013-03-20 14:20:00,70.6,64.5,29.88,West,269,2.0,9.0,81,0.00,,,0.18,Wunderground v.1.15,2013-03-20 18:20:00,
2013-03-20 14:30:00,70.4,64.6,29.88,West,273,3.0,9.0,82,0.00,,,0.18,Wunderground v.1.15,2013-03-20 18:30:00,
2013-03-20 14:40:00,70.4,64.6,29.87,West,276,2.0,9.0,82,0.00,,,0.18,Wunderground v.1.15,2013-03-20 18:40:00,
2013-03-20 14:50:00,70.3,64.2,29.86,WSW,255,1.0,1.0,81,0.00,,,0.18,Wunderground v.1.15,2013-03-20 18:50:00,
2013-03-20 15:00:00,70.2,64.1,29.86,WSW,242,2.0,2.0,81,0.00,,,0.18,Wunderground v.1.15,2013-03-20 19:00:00,
2013-03-20 15:10:00,70.8,64.7,29.85,WSW,242,0.0,9.0,81,0.00,,,0.18,Wunderground v.1.15,2013-03-20 19:10:00,
2013-03-20 15:20:00,70.9,64.4,29.84,WSW,242,1.0,1.0,80,0.00,,,0.18,Wunderground v.1.15,2013-03-20 19:20:00,
2013-03-20 15:30:00,71.2,64.7,29.83,WSW,258,2.0,2.0,80,0.00,,,0.18,Wunderground v.1.15,2013-03-20 19:30:00,
2013-03-20 15:40:00,71.6,64.7,29.82,West,262,2.0,9.0,79,0.00,,,0.18,Wunderground v.1.15,2013-03-20 19:40:00,
2013-03-20 15:50:00,71.2,64.4,29.83,NW,317,5.0,9.0,79,0.00,,,0.18,Wunderground v.1.15,2013-03-20 19:50:00,
2013-03-20 16:00:00,70.8,64.3,29.82,NW,323,4.0,9.0,80,0.00,,,0.18,Wunderground v.1.15,2013-03-20 20:00:00,
2013-03-20 16:10:00,71.1,64.3,29.82,NW,319,2.0,9.0,79,0.00,,,0.18,Wunderground v.1.15,2013-03-20 20:10:00,
2013-03-20 16:20:00,71.3,64.4,29.81,NW,313,3.0,9.0,79,0.00,,,0.18,Wunderground v.1.15,2013-03-20 20:20:00,
2013-03-20 16:30:00,71.5,63.9,29.81,NW,317,3.0,9.0,77,0.00,,,0.18,Wunderground v.1.15,2013-03-20 20:30:00,
2013-03-20 16:40:00,71.4,63.8,29.81,NW,317,4.0,9.0,77,0.00,,,0.18,Wunderground v.1.15,2013-03-20 20:40:00,
2013-03-20 16:50:00,71.4,63.4,29.80,NNW,329,3.0,9.0,76,0.00,,,0.18,Wunderground v.1.15,2013-03-20 20:50:00,
2013-03-20 17:00:00,70.0,60.6,29.80,North,5,8.0,8.0,72,0.00,,,0.18,Wunderground v.1.15,2013-03-20 21:00:00,
2013-03-20 17:10:00,68.5,59.9,29.80,NNE,25,9.0,9.0,74,0.00,,,0.18,Wunderground v.1.15,2013-03-20 21:10:00,
2013-03-20 17:20:00,68.3,60.4,29.80,NE,42,8.0,9.0,76,0.00,,,0.18,Wunderground v.1.15,2013-03-20 21:20:00,
2013-03-20 17:30:00,68.0,60.2,29.79,NNE,22,8.0,8.0,76,0.00,,,0.18,Wunderground v.1.15,2013-03-20 21:30:00,
2013-03-20 17:40:00,67.7,60.2,29.80,NE,42,8.0,8.0,77,0.00,,,0.18,Wunderground v.1.15,2013-03-20 21:40:00,
2013-03-20 17:50:00,67.4,60.7,29.80,NNW,348,8.0,8.0,79,0.00,,,0.18,Wunderground v.1.15,2013-03-20 21:50:00,
2013-03-20 18:00:00,66.5,60.5,29.82,NNW,342,6.0,6.0,81,0.00,,,0.18,Wunderground v.1.15,2013-03-20 22:00:00,
2013-03-20 18:10:00,66.0,60.3,29.81,NE,34,5.0,9.0,82,0.00,,,0.18,Wunderground v.1.15,2013-03-20 22:10:00,
2013-03-20 18:20:00,65.7,60.4,29.82,NE,34,5.0,5.0,83,0.00,,,0.18,Wunderground v.1.15,2013-03-20 22:20:00,
2013-03-20 18:30:00,65.7,60.4,29.82,NNE,25,3.0,3.0,83,0.00,,,0.18,Wunderground v.1.15,2013-03-20 22:30:00,
2013-03-20 18:40:00,65.7,60.4,29.82,NNE,28,2.0,2.0,83,0.00,,,0.18,Wunderground v.1.15,2013-03-20 22:40:00,
2013-03-20 18:50:00,65.7,60.7,29.82,NNE,28,2.0,9.0,84,0.00,,,0.18,Wunderground v.1.15,2013-03-20 22:50:00,
2013-03-20 19:00:00,65.7,60.7,29.84,NNE,24,2.0,9.0,84,0.00,,,0.18,Wunderground v.1.15,2013-03-20 23:00:00,
2013-03-20 19:10:00,65.7,60.4,29.84,NW,321,4.0,9.0,83,0.00,,,0.18,Wunderground v.1.15,2013-03-20 23:10:00,
2013-03-20 19:20:00,64.8,59.9,29.84,North,9,9.0,10.0,84,0.00,,,0.18,Wunderground v.1.15,2013-03-20 23:20:00,
2013-03-20 19:30:00,63.3,59.4,29.85,NNW,327,7.0,7.0,87,0.00,,,0.18,Wunderground v.1.15,2013-03-20 23:30:00,
2013-03-20 19:40:00,62.6,59.3,29.87,WNW,286,5.0,5.0,89,0.00,,,0.19,Wunderground v.1.15,2013-03-20 23:40:00,
2013-03-20 19:50:00,61.6,58.6,29.88,NNW,342,6.0,11.0,90,0.00,,,0.19,Wunderground v.1.15,2013-03-20 23:50:00,
2013-03-20 20:00:00,60.5,57.6,29.89,NNW,337,10.0,11.0,90,0.00,,,0.20,Wunderground v.1.15,2013-03-21 00:00:00,
2013-03-20 20:10:00,59.8,57.2,29.88,NNW,341,11.0,11.0,91,0.00,,,0.20,Wunderground v.1.15,2013-03-21 00:10:00,
2013-03-20 20:20:00,59.6,57.3,29.90,NNW,333,7.0,7.0,92,0.00,,,0.21,Wunderground v.1.15,2013-03-21 00:20:00,
2013-03-20 20:30:00,59.6,57.3,29.89,NNW,331,4.0,9.0,92,0.00,,,0.21,Wunderground v.1.15,2013-03-21 00:30:00,
2013-03-20 20:40:00,59.1,56.8,29.88,North,355,6.0,6.0,92,0.00,,,0.21,Wunderground v.1.15,2013-03-21 00:40:00,
2013-03-20 20:50:00,58.9,56.6,29.88,North,355,3.0,9.0,92,0.00,,,0.21,Wunderground v.1.15,2013-03-21 00:50:00,
2013-03-20 21:00:00,58.5,56.5,29.87,North,355,3.0,9.0,93,0.00,,,0.21,Wunderground v.1.15,2013-03-21 01:00:00,
2013-03-20 21:10:00,58.5,56.5,29.86,North,355,1.0,9.0,93,0.00,,,0.22,Wunderground v.1.15,2013-03-21 01:10:00,
2013-03-20 21:20:00,58.3,56.3,29.86,North,355,0.0,9.0,93,0.00,,,0.22,Wunderground v.1.15,2013-03-21 01:20:00,
2013-03-20 21:30:00,58.4,56.4,29.86,North,355,2.0,2.0,93,0.00,,,0.22,Wunderground v.1.15,2013-03-21 01:30:00,
2013-03-20 21:40:00,58.5,56.5,29.86,North,355,1.0,1.0,93,0.00,,,0.22,Wunderground v.1.15,2013-03-21 01:40:00,
2013-03-20 21:50:00,58.5,56.5,29.85,North,355,0.0,9.0,93,0.00,,,0.22,Wunderground v.1.15,2013-03-21 01:50:00,
2013-03-20 22:00:00,58.5,56.5,29.85,North,355,1.0,9.0,93,0.00,,,0.22,Wunderground v.1.15,2013-03-21 02:00:00,
2013-03-20 22:10:00,58.4,56.4,29.83,ESE,113,4.0,9.0,93,0.00,,,0.22,Wunderground v.1.15,2013-03-21 02:10:00,
2013-03-20 22:20:00,58.4,56.7,29.86,NNW,334,5.0,13.0,94,0.00,,,0.22,Wunderground v.1.15,2013-03-21 02:20:00,
2013-03-20 22:30:00,58.5,56.8,29.87,NNW,337,6.0,11.0,94,0.00,,,0.22,Wunderground v.1.15,2013-03-21 02:30:00,
2013-03-20 22:40:00,58.3,56.3,29.87,NNW,342,5.0,5.0,93,0.00,,,0.22,Wunderground v.1.15,2013-03-21 02:40:00,
2013-03-20 22:50:00,58.1,56.4,29.87,NNW,343,3.0,9.0,94,0.00,,,0.22,Wunderground v.1.15,2013-03-21 02:50:00,
2013-03-20 23:00:00,58.1,56.4,29.87,NNW,343,2.0,2.0,94,0.00,,,0.22,Wunderground v.1.15,2013-03-21 03:00:00,
2013-03-20 23:10:00,58.1,56.4,29.87,NNW,343,1.0,9.0,94,0.00,,,0.23,Wunderground v.1.15,2013-03-21 03:10:00,
2013-03-20 23:20:00,58.2,56.5,29.87,NNW,343,2.0,9.0,94,0.00,,,0.23,Wunderground v.1.15,2013-03-21 03:20:00,
2013-03-20 23:30:00,58.2,56.5,29.88,NW,308,3.0,9.0,94,0.00,,,0.23,Wunderground v.1.15,2013-03-21 03:30:00,
2013-03-20 23:40:00,58.1,56.4,29.88,WNW,288,4.0,4.0,94,0.00,,,0.23,Wunderground v.1.15,2013-03-21 03:40:00,
2013-03-20 23:50:00,58.0,56.3,29.88,West,281,3.0,9.0,94,0.00,,,0.23,Wunderground v.1.15,2013-03-21 03:50:00,